Flag for Italy Weather past 2 weeks in Ancona, Italy

Now
82 °F

Passing clouds.


Feels Like: 83 °F
Forecast: 72 / 86 °F
Wind: 3 mph from South

Location: Falconara

Current Time: Jul 5, 2015 at 10:24:29 PM

Latest Report: Jul 5, 2015 at 8:50 PM


Visibility: N/A

Pressure: 30.04 "Hg

Humidity: 51%

Dew point: 63 °F

Location of AnconaLocation

Historic Weather in Ancona — Graph

°F

Ancona temperature yesterday

Maximum temperature yesterday: 88 °F (at 4:50 PM)
Minimum temperature yesterday: 68 °F (at 3:50 AM)
Average temperature yesterday: 78 °F

Past Weeks' High & Low Weather Summary

 TemperatureHumidityPressure
High88 °F (Jun 23, 4:50 PM)94% (Jun 21, 1:50 AM)30.24 "Hg (Jun 21, 1:50 AM)
Low54 °F (Jun 22, 4:50 AM)29% (Jul 1, 11:50 AM)29.74 "Hg (Jun 23, 5:50 PM)
Average72 °F62%30.08 "Hg
* Reported Jun 20 8:50 PM — Jul 5 8:50 PM, Ancona, Weather by CustomWeather, © 2015

Note: Actual official high and low records may vary slightly from our data, if they occured in-between our weather recording intervals... More about our weather records

Advertising

Ancona weather history for previous 24 hours

 ConditionsComfort  
Time TempWeatherWind HumidityBarometerVisibility
8:50 PM
Sun, Jul 5
82 °FPassing clouds.3 mph51%30.04 "HgN/A
7:50 PM84 °FSunny.2 mph48%30.04 "Hg10 mi
6:50 PM86 °FPassing clouds.5 mph43%30.04 "HgN/A
5:50 PM88 °FPassing clouds.7 mph43%30.04 "HgN/A
4:50 PM86 °FSunny.9 mph49%30.07 "Hg10 mi
3:50 PM84 °FSunny.10 mph51%30.07 "Hg10 mi
2:50 PM84 °FSunny.12 mph51%30.07 "Hg10 mi
1:50 PM84 °FSunny.10 mph58%30.09 "Hg10 mi
12:50 PM84 °FSunny.9 mph58%30.09 "Hg10 mi
11:50 AM84 °FSunny.9 mph55%30.09 "Hg10 mi
10:50 AM84 °FSunny.8 mph55%30.09 "Hg10 mi
9:50 AM82 °FSunny.1 mph55%30.09 "Hg10 mi
8:50 AM79 °FSunny.3 mph61%30.09 "Hg10 mi
7:50 AM73 °FPassing clouds.3 mph78%30.09 "HgN/A
6:50 AM68 °FSunny.3 mph88%30.09 "Hg10 mi
5:50 AM68 °FClear.3 mph83%30.09 "Hg10 mi
4:50 AM68 °FClear.3 mph83%30.09 "Hg10 mi
3:50 AM68 °FPassing clouds.3 mph83%30.09 "HgN/A
2:50 AM70 °FClear.3 mph78%30.09 "Hg10 mi
1:50 AM70 °FPassing clouds.3 mph73%30.09 "HgN/A
12:50 AM72 °FClear.3 mph69%30.12 "Hg10 mi
11:50 PM
Sat, Jul 4
73 °FClear.3 mph65%30.12 "Hg10 mi
10:50 PM75 °FClear.5 mph61%30.12 "Hg10 mi
Weather by CustomWeather, © 2015

See weather overviewHow to use our weather pages